Home   Weather   Osnabrück   Past weeks

Flag for Germany Past Weather in Osnabrück, Lower Saxony, Germany — Yesterday and Last 2 Weeks

Now
43 °F

Light rain. Partly cloudy.


Feels Like: 37 °F
Forecast: 33 / 51 °F
Wind: 9 mph from Northwest

Location: Muenster / Osnabrueck

Current Time: Apr 25, 2017 at 3:18:07 am

Latest Report: Apr 25, 2017 at 2:20 am


Visibility: N/A

Pressure: 29.68 "Hg

Humidity: 87%

Dew Point: 39 °F

Location of OsnabrückLocation

Past Weather in Osnabrück — Graph

°F

Osnabrück Temperature Yesterday

Maximum temperature yesterday: 57 °F (at 1:50 pm)
Minimum temperature yesterday: 32 °F (at 4:20 am)
Average temperature yesterday: 46 °F

High & Low Weather Summary for the Past Weeks

 TemperatureHumidityPressure
High57 °F (Apr 10, 4:20 pm)100% (Apr 12, 11:50 pm)30.63 "Hg (Apr 12, 11:50 pm)
Low27 °F (Apr 20, 4:20 am)30% (Apr 20, 4:50 pm)29.68 "Hg (Apr 25, 12:20 am)
Average45 °F71%30.16 "Hg
* Reported Apr 10 2:50 am — Apr 25 2:20 am, Osnabrück, Weather by CustomWeather, © 2017

Note: Actual official high and low records may vary slightly from our data, if they occured in-between our weather recording intervals... More about our weather records

Advertising

Osnabrück Weather History for the Previous 24 Hours

Scroll right to see more
 ConditionsComfort  
Time TempWeatherWind HumidityBarometerVisibility
2:20 am
Tue, Apr 25
43 °FLight rain. Partly cloudy.9 mph87%29.68 "HgN/A
1:50 am43 °FLight rain. Partly cloudy.14 mph93%29.68 "Hg5 mi
1:20 am46 °FLight rain. Partly cloudy.6 mph87%29.68 "HgN/A
12:50 am46 °FLight rain. Passing clouds.10 mph87%29.68 "HgN/A
12:20 am50 °FLight rain. Passing clouds.9 mph71%29.68 "HgN/A
11:50 pm
Mon, Apr 24
50 °FPassing clouds.8 mph67%29.71 "HgN/A
11:20 pm50 °FPassing clouds.8 mph71%29.71 "HgN/A
10:50 pm50 °FPassing clouds.7 mph71%29.74 "HgN/A
10:20 pm52 °FPassing clouds.9 mph62%29.74 "HgN/A
9:50 pm52 °FPassing clouds.15 mph62%29.74 "HgN/A
9:20 pm50 °FLight rain. Passing clouds.12 mph76%29.77 "HgN/A
8:50 pm50 °FPassing clouds.5 mph76%29.77 "HgN/A
8:20 pm50 °FSunny.5 mph76%29.77 "Hg10 mi
7:50 pm50 °FPassing clouds.8 mph76%29.80 "HgN/A
7:20 pm50 °FSunny.8 mph76%29.80 "Hg10 mi
6:50 pm50 °FSunny.12 mph76%29.83 "Hg10 mi
6:20 pm50 °FLight rain. Partly sunny.12 mph76%29.83 "HgN/A
5:50 pm52 °FPartly sunny.14 mph72%29.83 "HgN/A
5:20 pm54 °FPartly sunny.12 mph63%29.83 "HgN/A
4:50 pm52 °FPartly sunny.10 mph72%29.86 "HgN/A
4:20 pm52 °FPartly sunny.8 mph72%29.86 "HgN/A
3:50 pm54 °FPartly sunny.14 mph63%29.89 "HgN/A
3:20 pm55 °FPartly sunny.15 mph51%29.86 "HgN/A
2:50 pm55 °FPartly sunny.18 mph51%29.89 "HgN/A
2:20 pm57 °FPartly sunny.17 mph48%29.89 "HgN/A
1:50 pm57 °FBroken clouds.16 mph48%29.89 "HgN/A
1:20 pm55 °FScattered clouds.18 mph51%29.92 "HgN/A
12:50 pm55 °FPartly sunny.20 mph51%29.92 "HgN/A
12:20 pm54 °FBroken clouds.20 mph51%29.95 "HgN/A
11:50 am54 °FScattered clouds.20 mph47%29.95 "HgN/A
11:20 am52 °FScattered clouds.17 mph50%29.95 "HgN/A
10:50 am50 °FScattered clouds.15 mph50%29.98 "HgN/A
10:20 am48 °FPartly sunny.14 mph58%29.98 "HgN/A
9:20 am45 °FPassing clouds.13 mph66%30.01 "HgN/A
8:50 am43 °FSunny.12 mph71%30.01 "Hg10 mi
8:20 am43 °FPassing clouds.10 mph76%30.04 "HgN/A
7:50 am41 °FSunny.9 mph76%30.04 "Hg10 mi
7:20 am39 °FSunny.8 mph81%30.04 "Hg10 mi
6:50 am34 °FPassing clouds.3 mph93%30.07 "HgN/A
6:20 am34 °FFog.5 mph87%30.07 "HgN/A
5:50 am32 °FFog.5 mph93%30.07 "HgN/A
5:20 am32 °FClear.3 mph93%30.09 "Hg10 mi
4:50 am32 °FClear.2 mph93%30.09 "Hg10 mi
4:20 am32 °FClear.3 mph93%30.09 "Hg10 mi
3:50 am36 °FClear.5 mph81%30.12 "Hg10 mi
3:20 am34 °FClear.5 mph87%30.12 "Hg10 mi
Weather by CustomWeather, © 2017

See weather overviewHow to use our weather pages